#timestamp,LO_Frequency,Hit,StdDev 
1585861215.8,286047001.1,N
1585861235.6,286046998.8,N
1585861255.4,286046999.7,N
1585861275.3,286047002.6,N
1585861295.1,286047002.8,N
1585861315.9,286047011.9,Y
1585861335.7,286047004.2,P
1585861355.5,286047001.4,N
1585861375.4,286047002.4,N
1585861395.2,286047002.1,N
1585861415.0,286047001.4,N
1585861415.9,286047001.4,N
1585861435.8,286047001.4,N
1585861455.6,286047003.4,Y
1585861475.5,286047007.4,P
1585861495.3,286047015.4,P
1585861515.1,286047019.6,P
1585861535.9,286047022.9,Y
1585861555.7,286047015.9,P
1585861575.6,286047021.0,P
1585861595.4,286047042.3,P
1585861615.2,286047035.8,Y
1585861635.1,286047001.7,P
1585861636.0,286047001.7,N
1585861655.8,286046993.8,N
1585861675.6,286046987.0,N
1585861695.5,286046984.0,N
1585861715.3,286046979.0,N
1585861735.2,286046978.5,N
1585861755.9,286046974.8,N
1585861775.7,286046970.9,N
1585861795.6,286046969.5,N
1585861815.4,286046970.1,N
1585861835.3,286046970.8,N
1585861855.1,286046967.9,N
1585861856.0,286046967.9,N
1585861875.8,286046969.1,N
1585861895.7,286046968.8,N
1585861915.5,286046966.6,N
1585861935.3,286046966.1,N
1585861955.2,286046966.4,N
1585861975.0,286046968.9,N
1585861975.9,286046968.9,N
1585861995.8,286046965.1,N
1585862015.6,286046967.6,N
1585862035.4,286046967.6,N
1585862055.3,286046965.0,N
1585862075.1,286046965.9,N
1585862095.9,286046963.0,N
1585862115.7,286046965.3,N
1585862135.5,286046963.8,N
1585862155.4,286046965.9,N
1585862175.2,286046965.2,Y
1585862195.0,286046992.5,P
1585862196.0,286046992.5,N
1585862215.8,286046991.9,N
1585862235.6,286046994.8,N
1585862255.5,286046994.5,N
1585862275.3,286046994.1,N
1585862295.2,286046995.7,N
1585862315.9,286046997.8,N
1585862335.7,286046993.5,N
1585862355.6,286046993.9,N
1585862375.4,286046993.4,N
1585862395.2,286046996.3,N
1585862415.1,286046993.3,N
1585862416.0,286046993.3,N
1585862435.8,286046995.9,N
1585862455.7,286046993.6,N
1585862475.5,286046994.2,N
1585862495.3,286046995.9,N
1585862515.2,286046996.7,N
1585862535.0,286046998.3,N
1585862535.9,286046998.3,N
1585862555.8,286046997.7,N
1585862575.6,286046995.4,N
1585862595.4,286046995.5,N
1585862615.3,286046996.0,N
1585862635.1,286046996.6,N
1585862655.8,286046999.3,N
1585862675.7,286046997.2,N
1585862695.5,286046995.2,N
1585862715.4,286046998.0,N
1585862735.2,286047011.9,Y
1585862755.0,286046999.9,P
1585862755.9,286046999.9,N
1585862775.8,286047000.0,N
1585862795.6,286047001.6,N
1585862815.5,286047004.2,N
1585862835.3,286047004.8,N
1585862855.1,286047007.5,N
1585862875.9,286047005.1,N
1585862895.7,286047005.6,N
1585862915.5,286047005.6,N
1585862935.4,286047003.9,N
1585862955.2,286047001.4,N
1585862975.1,286047002.4,N
1585862976.0,286047002.4,N
1585862995.8,286047000.2,N
1585863045.7,286047004.0,E
1585863055.6,286047002.7,N
1585863075.4,286046997.3,P
1585863095.3,286046996.6,N
1585863115.1,286046997.1,N
1585863135.8,286047001.2,N
1585863155.7,286046997.2,N
1585863175.5,286046995.2,N
1585863195.4,286046997.8,N
1585863215.2,286046996.9,N
1585863235.0,286046996.8,N
1585863235.9,286046996.8,N
1585863255.8,286046999.3,N
1585863275.6,286047000.2,N
1585863295.5,286046999.9,N
1585863315.3,286047000.0,N
1585863335.1,286047000.3,N
1585863355.9,286046996.6,N
1585863375.7,286047000.4,N
1585863395.5,286047000.0,N
1585863415.4,286047000.1,N
1585863435.2,286046999.8,N
1585863455.1,286047002.3,N
1585863456.0,286047002.3,N
1585863475.8,286047000.2,N
1585863495.6,286047000.8,N
1585863515.5,286046998.6,N
1585863535.3,286046999.4,N
1585863555.2,286046999.1,N
1585863575.9,286047001.1,N
1585863595.7,286047002.6,N
1585863615.6,286047001.6,N
1585863635.4,286046999.8,N
1585863655.2,286047002.5,N
1585863675.1,286047000.9,N
1585863676.0,286047000.9,N
1585863695.8,286047000.8,N
1585863715.7,286047000.9,N
1585863735.5,286047002.8,N
1585863755.4,286047003.2,N
1585863775.2,286047003.7,N
1585863795.0,286047003.8,N
1585863795.9,286047003.8,N
1585863815.8,286047003.5,N
1585863835.6,286047002.3,N
1585863855.5,286047000.2,N
1585863875.3,286046999.0,N
1585863895.1,286047000.4,N
1585863915.9,286046999.8,N
1585863935.7,286046996.8,N
1585863955.6,286046999.1,N
1585863975.4,286047000.2,N
1585863995.2,286047002.4,N
1585864015.1,286047000.6,N
1585864016.0,286047000.6,N
1585864035.8,286046998.6,N
1585864055.7,286047000.3,N
1585864075.5,286047002.4,N
1585864095.3,286046999.9,N
1585864115.2,286046998.7,N
1585864135.0,286047002.3,N
1585864135.9,286047002.3,N
1585864155.8,286047003.2,N
1585864175.6,286047004.1,N
1585864195.4,286047003.3,N
1585864215.3,286047001.6,N
1585864235.1,286047002.2,N
1585864255.8,286047002.1,N
1585864275.7,286047001.8,N
1585864295.5,286047002.5,N
1585864315.4,286047000.9,N
1585864335.2,286047003.9,N
1585864355.0,286047002.3,N
1585864355.9,286047002.3,N
1585864375.8,286046998.7,N
1585864395.6,286047000.5,N
1585864415.5,286046999.0,N
1585864435.3,286046999.8,N
1585864455.1,286047000.0,N
1585864475.9,286047002.4,N
1585864495.7,286047000.6,N
1585864515.5,286046999.2,N
1585864535.4,286046998.9,N
1585864555.2,286046999.3,N
1585864575.1,286046999.9,N
1585864576.0,286046999.9,N
1585864595.8,286046999.8,N
1585864615.6,286047002.5,N
1585864635.5,286047000.1,N
1585864655.3,286047002.3,N
1585864675.1,286047003.6,N
1585864695.9,286047003.7,N
1585864715.7,286047000.6,N
1585864735.6,286047000.9,N
1585864755.4,286047002.6,N
1585864775.2,286046999.9,N
1585864795.1,286046999.8,N
1585864796.0,286046999.8,N
